Flag for Japan Weather past 2 weeks in Yokohama, Japan

Now
68 °F

Partly sunny.


Feels Like: 68 °F
Forecast: 65 / 75 °F
Wind: 10 mph from Northeast

Location: Tokyo International Airport

Current Time: Sep 18, 2014 at 7:13:32 AM

Latest Report: Sep 18, 2014 at 6:30 AM


Visibility: N/A

Pressure: 29.86 "Hg

Humidity: 73%

Dew point: 59 °F

Location of YokohamaLocation

Historic Weather in Yokohama — Graph

°F

Yokohama temperature yesterday

Maximum temperature yesterday: 79 °F (at 1:00 PM)
Minimum temperature yesterday: 70 °F (at 5:00 AM)
Average temperature yesterday: 73 °F

Past Weeks' High & Low Weather Summary

 TemperatureHumidityPressure
High86 °F (Sep 5, 11:30 AM)94% (Sep 6, 8:30 PM)30.01 "Hg (Sep 6, 8:30 PM)
Low66 °F (Sep 12, 2:30 AM)51% (Sep 16, 1:00 PM)29.62 "Hg (Sep 9, 2:00 AM)
Average74 °F78%29.84 "Hg
* Reported Sep 3 6:00 AM — Sep 18 6:00 AM, Yokohama, Weather by CustomWeather, © 2014

Note: Actual official high and low records may vary slightly from our data, if they occured in-between our weather recording intervals... More about our weather records

Advertising

Yokohama weather history for previous 24 hours

 ConditionsComfort  
Time TempWeatherWind HumidityBarometerVisibility
6:00 AM
Sep 18
68 °FPartly sunny.10 mph78%29.86 "HgN/A
5:30 AM68 °FPartly sunny.10 mph73%29.86 "HgN/A
5:00 AM68 °FPassing clouds.13 mph73%29.86 "HgN/A
4:30 AM68 °FPassing clouds.14 mph73%29.86 "HgN/A
4:00 AM70 °FPassing clouds.12 mph69%29.83 "HgN/A
3:30 AM70 °FPassing clouds.15 mph69%29.83 "HgN/A
3:00 AM70 °FPassing clouds.14 mph69%29.83 "HgN/A
2:30 AM70 °FPassing clouds.14 mph69%29.83 "HgN/A
2:00 AM70 °FSprinkles. Passing clouds.15 mph69%29.83 "HgN/A
1:30 AM70 °FSprinkles. Passing clouds.15 mph64%29.86 "HgN/A
1:00 AM70 °FPassing clouds.15 mph69%29.86 "HgN/A
12:30 AM70 °FPassing clouds.15 mph69%29.86 "HgN/A
12:00 AM70 °FPassing clouds.15 mph73%29.86 "HgN/A
11:30 PM
Sep 17
70 °FPassing clouds.15 mph78%29.86 "HgN/A
11:00 PM72 °FPassing clouds.16 mph73%29.86 "HgN/A
10:30 PM72 °FPassing clouds.14 mph73%29.89 "HgN/A
10:00 PM72 °FPassing clouds.12 mph73%29.89 "HgN/A
9:30 PM72 °FPassing clouds.9 mph73%29.89 "HgN/A
9:00 PM72 °FPassing clouds.9 mph69%29.89 "HgN/A
8:30 PM72 °FPartly cloudy.12 mph69%29.89 "HgN/A
8:00 PM72 °FPassing clouds.10 mph73%29.89 "HgN/A
7:30 PM72 °FPassing clouds.14 mph73%29.89 "HgN/A
7:00 PM73 °FPassing clouds.13 mph69%29.89 "HgN/A
6:30 PM73 °FPassing clouds.15 mph65%29.89 "HgN/A
6:00 PM73 °FPassing clouds.13 mph69%29.89 "HgN/A
5:30 PM73 °FPartly sunny.15 mph69%29.89 "HgN/A
5:00 PM73 °FPartly sunny.13 mph65%29.86 "HgN/A
4:30 PM75 °FPartly sunny.13 mph61%29.89 "HgN/A
4:00 PM75 °FPartly sunny.15 mph61%29.86 "HgN/A
3:30 PM75 °FPartly sunny.16 mph65%29.86 "HgN/A
3:00 PM75 °FPartly sunny.16 mph65%29.86 "HgN/A
2:30 PM75 °FPartly sunny.12 mph65%29.86 "HgN/A
2:00 PM77 °FPartly sunny.14 mph61%29.86 "HgN/A
1:30 PM77 °FPartly sunny.9 mph61%29.89 "HgN/A
1:00 PM79 °FBroken clouds.7 mph58%29.89 "HgN/A
12:30 PM77 °FBroken clouds.7 mph57%29.89 "HgN/A
12:00 PM77 °FBroken clouds.7 mph57%29.92 "HgN/A
11:30 AM77 °FBroken clouds.5 mph57%29.92 "HgN/A
11:00 AM75 °FPartly sunny.7 mph61%29.95 "HgN/A
10:30 AM75 °FPartly sunny.9 mph57%29.95 "HgN/A
10:00 AM75 °FBroken clouds.8 mph61%29.95 "HgN/A
9:30 AM75 °FScattered clouds.8 mph61%29.98 "HgN/A
9:00 AM73 °FPartly sunny.8 mph69%29.98 "HgN/A
8:30 AM73 °FPartly sunny.12 mph65%29.98 "HgN/A
8:00 AM72 °FPartly sunny.10 mph69%29.95 "HgN/A
7:30 AM72 °FBroken clouds.8 mph73%29.98 "HgN/A
7:00 AM72 °FBroken clouds.8 mph73%29.98 "HgN/A
Weather by CustomWeather, © 2014

See weather overviewHow to use our weather pages